Regional Weather Roundup
Issued by NWS

Home | Current Version | Previous Version | Text Only | Print | Product List | Glossary Off
Versions: 1 2 3 4 5 6 7 8 9 10 11 12 13 14 15 16 17 18 19 20 21 22 23 24 25 26 27 28 29 30 31 32 33 34 35 36 37 38 39 40 41 42 43 44 45 46 47 48 49 50

000
ASUS43 KLOT 231300
RWRIL

ILLINOIS REGIONAL WEATHER ROUNDUP
NATIONAL WEATHER SERVICE CHICAGO/ROMEOVILLE IL
800 AM CDT WED APR 23 2014

NOTE: "FAIR" INDICATES FEW OR NO CLOUDS BELOW 12,000 FEET WITH NO
SIGNIFICANT WEATHER AND/OR OBSTRUCTIONS TO VISIBILITY.

* THESE STATIONS ARE NOT UNDER NWS QUALITY CONTROL. THEY ALSO MAY NOT
  REPORT WEATHER SUCH AS PRECIPITATION OR FOG.

ILZ001-002-007-009-015-016-024-231400-
NORTHWEST ILLINOIS

CITY           SKY/WX    TMP DP  RH WIND       PRES   REMARKS
MOLINE         MOSUNNY   41  31  67 E9        30.16S
STERLING*      SUNNY     39  30  70 E6        30.18S WCI  35
$$

ILZ003-004-008-010-011-017-018-231400-
NORTH CENTRAL ILLINOIS

CITY           SKY/WX    TMP DP  RH WIND       PRES   REMARKS
ROCKFORD       PTSUNNY   39  29  67 NE7       30.20R WCI  34
$$

ILZ005-006-012>014-019>023-231400-
NORTHEAST ILLINOIS

CITY           SKY/WX    TMP DP  RH WIND       PRES   REMARKS
CHICAGO-OHARE  MOSUNNY   40  26  57 NE14      30.17R
CHICAGO-MIDWAY MOSUNNY   40  27  59 NE15      30.17R
AURORA         SUNNY     38  30  73 NE8       30.17S WCI  32
WAUKEGAN       SUNNY     38  28  67 VRB6      30.17R WCI  33
DUPAGE AIRPORT SUNNY     38  30  73 NE15      30.16R WCI  29
WHEELING       SUNNY     39  27  62 NE13G18   30.19R WCI  31
NORTHERLY ISL    N/A     38  29  70 N15         N/A  WCI  29
$$

LMZ740>746-231400-
SOUTHERN LAKE MICHIGAN

STATION/POSITION SKY/WX   TEMP    WIND        PRES    VSBY  WAVE
                          AIR SEA DIR/SP/G                  HT/PER
                          (F)     (DEG/KT/KT) (MB)    (MI)  (FT/S)
WAUKEGAN HARBOR            38      20/ 16/ 18 1023.0R
HARRISON CRIB              36      10/ 17/ 19   N/A
BURNHAM HARBOR             38      20/ 12/ 18   N/A
CALUMET HARBOR             37      20/ 13/ 18 1022.3R
MICHIGAN CITY              36      10/ 19/ 22   N/A
$$

ILZ025>027-034>036-040-047-049-050-058-095>099-231400-
WEST-CENTRAL ILLINOIS

CITY           SKY/WX    TMP DP  RH WIND       PRES   REMARKS
QUINCY         PTSUNNY   45  32  60 SE15      30.14R
$$

ILZ028>032-037-038-041>044-048-051>054-059>061-231400-
CENTRAL ILLINOIS

CITY           SKY/WX    TMP DP  RH WIND       PRES   REMARKS
DECATUR        SUNNY     43  30  60 E12       30.16R
PEORIA         SUNNY     43  29  57 E8        30.17R
SPRINGFIELD    SUNNY     44  29  55 E9        30.18R
TAYLORVILLE    NOT AVBL
$$

ILZ033-039-045-046-055>057-062-063-231400-
EAST-CENTRAL ILLINOIS

CITY           SKY/WX    TMP DP  RH WIND       PRES   REMARKS
CHAMPAIGN      SUNNY     41  29  62 NE16      30.13F
MATTOON        SUNNY     42  29  59 NE13      30.14R
$$

ILZ079-100>102-231400-
SOUTHWEST ILLINOIS

CITY           SKY/WX    TMP DP  RH WIND       PRES   REMARKS
BELLEVILLE     SUNNY     48  41  76 E6        30.13R
CAHOKIA*       SUNNY     49  39  68 E10       30.12R
$$

ILZ064>066-069>071-074>076-080>082-084>086-088>090-092>094-231400-
SOUTH-CENTRAL ILLINOIS

CITY           SKY/WX    TMP DP  RH WIND       PRES   REMARKS
CARBONDALE     SUNNY     50  39  66 E8        30.11R
MARION         SUNNY     52  37  58 NE7       30.12R
MT. VERNON     SUNNY     48  30  49 NE6       30.14R
$$

ILZ067-068-072-073-078-083-087-091-231400-
SOUTHEAST ILLINOIS

CITY           SKY/WX    TMP DP  RH WIND       PRES   REMARKS
ROBINSON*      SUNNY     46  33  61 NE9       30.16R
$$

ABBREVIATIONS USED IN REMARKS
   TC - TEMPERATURE IN CELSIUS
  WCI - WIND CHILL INDEX
   HX - HEAT INDEX
  VSB - VISIBILITY
$$




USA.gov is the U.S. government's official web portal to all federal, state and local government web resources and services.